Weather reports worldwide

Advertisment
Lentran, United Kingdom (99125): temperature & dewpoint: 10.07.2018 23:00:00 - 16.07.2018 23:00:00 (BST)Lentran, United Kingdom (99125): precipitation: 10.07.2018 23:00:00 - 16.07.2018 23:00:00 (BST)
Date & Time tt [°C] td [°C] rr [mm]
16.07.2018 23:00:00 - - -
16.07.2018 22:00:00 - - -
16.07.2018 21:00:00 14,8 9,4 0,0
16.07.2018 20:00:00 15,5 9,5 0,0
16.07.2018 19:00:00 16,5 9,1 0,0
16.07.2018 18:00:00 17,2 9,0 0,0
16.07.2018 17:00:00 17,5 8,8 0,0
16.07.2018 16:00:00 18,1 9,2 0,0
16.07.2018 15:00:00 18,1 9,3 0,0
16.07.2018 14:00:00 18,0 10,9 0,0
16.07.2018 13:00:00 18,5 11,5 0,0
16.07.2018 12:00:00 18,4 10,2 0,0
16.07.2018 11:00:00 17,2 11,4 0,0
16.07.2018 10:00:00 15,4 12,1 0,0
16.07.2018 09:00:00 15,0 13,4 0,0
16.07.2018 08:00:00 13,8 12,6 0,0
16.07.2018 07:00:00 13,3 12,5 0,0
16.07.2018 06:00:00 13,1 12,7 0,0
16.07.2018 05:00:00 13,1 12,7 0,2
16.07.2018 04:00:00 13,0 12,7 0,8
16.07.2018 03:00:00 14,5 13,1 0,0
16.07.2018 02:00:00 15,2 14,9 0,0
16.07.2018 01:00:00 15,1 14,8 0,0
16.07.2018 00:00:00 15,7 14,8 0,0
15.07.2018 23:00:00 16,3 15,2 0,0
15.07.2018 22:00:00 17,2 15,2 0,0
15.07.2018 21:00:00 17,5 15,3 0,0
15.07.2018 20:00:00 18,4 15,5 0,0
15.07.2018 19:00:00 19,2 15,8 0,0
15.07.2018 18:00:00 19,7 16,4 0,2
15.07.2018 17:00:00 19,7 16,4 0,0
15.07.2018 16:00:00 20,6 16,8 0,0
15.07.2018 15:00:00 20,5 17,1 0,0
15.07.2018 14:00:00 20,3 17,8 0,0
15.07.2018 13:00:00 19,7 18,3 0,8
15.07.2018 12:00:00 18,4 17,0 2,0
15.07.2018 11:00:00 18,8 16,3 0,4
15.07.2018 10:00:00 19,1 15,5 0,0
15.07.2018 09:00:00 18,3 14,9 0,0
15.07.2018 08:00:00 17,5 14,7 0,0
15.07.2018 07:00:00 17,2 14,8 0,0
15.07.2018 06:00:00 16,8 14,7 0,0
15.07.2018 05:00:00 16,5 14,6 0,0
15.07.2018 04:00:00 16,8 14,5 0,0
15.07.2018 03:00:00 16,9 14,5 0,0
15.07.2018 02:00:00 17,0 14,4 0,0
15.07.2018 01:00:00 17,0 14,3 0,0
15.07.2018 00:00:00 17,3 13,9 0,0
14.07.2018 23:00:00 17,3 13,7 0,0
14.07.2018 22:00:00 17,6 13,5 0,0
14.07.2018 21:00:00 17,6 13,3 0,0
14.07.2018 20:00:00 18,1 13,0 0,0
14.07.2018 19:00:00 19,7 13,5 0,0
14.07.2018 18:00:00 19,6 13,1 0,0
14.07.2018 17:00:00 21,0 13,3 0,0
14.07.2018 16:00:00 21,4 13,3 0,0
14.07.2018 15:00:00 20,1 12,1 0,0
14.07.2018 14:00:00 20,0 12,2 0,0
14.07.2018 13:00:00 20,3 12,8 0,0
14.07.2018 12:00:00 19,3 12,2 0,0
14.07.2018 11:00:00 18,1 11,9 0,0
14.07.2018 10:00:00 17,9 11,5 0,0
14.07.2018 09:00:00 16,6 11,6 0,0
14.07.2018 08:00:00 15,4 11,1 0,0
14.07.2018 07:00:00 14,4 10,9 0,0
14.07.2018 06:00:00 13,0 10,4 0,0
14.07.2018 05:00:00 12,2 10,4 0,0
14.07.2018 04:00:00 10,4 9,4 0,0
14.07.2018 03:00:00 12,6 10,5 0,0
14.07.2018 02:00:00 11,0 9,7 0,0
14.07.2018 01:00:00 12,0 10,9 0,0
14.07.2018 00:00:00 11,7 10,2 0,0
13.07.2018 23:00:00 13,0 10,6 0,0
13.07.2018 22:00:00 14,8 10,7 0,0
13.07.2018 21:00:00 17,1 11,0 0,0
13.07.2018 20:00:00 20,8 11,4 0,0
13.07.2018 19:00:00 20,2 12,2 0,0
13.07.2018 18:00:00 19,2 12,3 0,0
13.07.2018 17:00:00 20,9 12,6 0,0
13.07.2018 16:00:00 20,2 12,5 0,0
13.07.2018 15:00:00 20,9 12,2 0,0
13.07.2018 14:00:00 20,5 12,2 0,0
13.07.2018 13:00:00 18,1 13,5 0,0
13.07.2018 12:00:00 16,6 13,2 0,0
13.07.2018 11:00:00 16,3 13,3 0,0
13.07.2018 10:00:00 14,6 12,5 0,0
13.07.2018 09:00:00 14,2 12,3 0,0
13.07.2018 08:00:00 13,7 12,0 0,0
13.07.2018 07:00:00 12,9 11,8 0,0
13.07.2018 06:00:00 12,3 11,9 0,0
13.07.2018 05:00:00 12,1 11,7 0,0
13.07.2018 04:00:00 12,0 11,6 0,0
13.07.2018 03:00:00 12,0 11,7 0,0
13.07.2018 02:00:00 12,0 11,6 0,0
13.07.2018 01:00:00 12,0 11,5 0,0
13.07.2018 00:00:00 12,1 11,5 0,0
12.07.2018 23:00:00 13,0 11,5 0,0
12.07.2018 22:00:00 13,5 11,5 0,0
12.07.2018 21:00:00 13,8 11,3 0,0
12.07.2018 20:00:00 15,4 10,9 0,0
12.07.2018 19:00:00 16,4 10,9 0,0
12.07.2018 18:00:00 17,1 12,2 0,0
12.07.2018 17:00:00 17,8 11,6 0,0
12.07.2018 16:00:00 17,6 11,9 0,0
12.07.2018 15:00:00 17,7 12,4 0,0
12.07.2018 14:00:00 16,8 12,2 0,0
12.07.2018 13:00:00 16,2 12,7 0,0
12.07.2018 12:00:00 15,2 12,3 0,0
12.07.2018 11:00:00 14,8 13,0 0,0
12.07.2018 10:00:00 14,0 12,8 0,0
12.07.2018 09:00:00 12,2 11,6 0,2
12.07.2018 08:00:00 12,0 11,6 0,2
12.07.2018 07:00:00 12,4 12,0 0,0
12.07.2018 06:00:00 11,8 11,6 0,0
12.07.2018 05:00:00 11,7 11,6 0,0
12.07.2018 04:00:00 11,7 11,5 0,0
12.07.2018 03:00:00 11,9 11,6 0,2
12.07.2018 02:00:00 12,0 11,8 0,0
12.07.2018 01:00:00 12,2 11,9 0,8
12.07.2018 00:00:00 12,3 12,2 0,4
11.07.2018 23:00:00 12,4 12,2 0,2
11.07.2018 22:00:00 12,7 12,4 0,2
11.07.2018 21:00:00 13,1 12,8 1,0
11.07.2018 20:00:00 13,4 12,9 0,4
11.07.2018 19:00:00 14,0 13,4 0,4
11.07.2018 18:00:00 14,0 13,1 0,2
11.07.2018 17:00:00 14,7 13,4 0,2
11.07.2018 16:00:00 15,0 13,5 0,0
11.07.2018 15:00:00 14,3 13,4 0,0
11.07.2018 14:00:00 14,3 13,2 0,0
11.07.2018 13:00:00 14,6 13,4 0,0
11.07.2018 12:00:00 15,1 13,9 0,0
11.07.2018 11:00:00 13,9 13,7 0,6
11.07.2018 10:00:00 13,3 13,3 1,0
11.07.2018 09:00:00 13,2 13,2 0,4
11.07.2018 08:00:00 12,7 12,7 0,6
11.07.2018 07:00:00 12,7 12,7 1,0
11.07.2018 06:00:00 12,8 12,8 0,8
11.07.2018 05:00:00 12,8 12,8 1,4
11.07.2018 04:00:00 12,9 12,9 0,6
11.07.2018 03:00:00 13,2 13,2 0,6
11.07.2018 02:00:00 13,3 13,2 1,2
11.07.2018 01:00:00 13,4 13,2 0,8
11.07.2018 00:00:00 13,6 13,4 1,6
10.07.2018 23:00:00 13,9 13,7 0,4

tt = temperature
td = dewpoint
rr = precipitation

Next stations